Location: Walnut Hills Mobile Home Park
(34.0445°N, 117.8184°W)
Time: 02:39:48
(UTC+00:00)

Meteor 1-25 Rocket - Pass Details

Date: 17 December 2025
Orbit: 838 x 888 km, 81.2° (Epoch: 15 January)

Event Time Altitude Azimuth Distance (km) Brightness Sun altitude
Rises 13:31:20 0° 183° (S) 3,451 7.6 -16.0°
Reaches altitude 10° 13:33:45 10° 181° (S) 2,522 6.9 -15.5°
Maximum altitude 13:39:29 78° 96° (E) 906 4.5 -14.4°
Drops below altitude 10° 13:45:19 10° 11° (N) 2,556 6.6 -13.3°
Sets 13:47:46 0° 10° (N) 3,500 7.3 -12.8°
